This demonstration page uses our WeatherBlox Daily Observations layout. Learn more.

Left ArrowRight Arrow

44.8408, -93.29828

Hourly Observations for December 8, 2017

Temp ( °F °C ) Dew Point ( °F °C ) Humidity (%) Winds ( mph kmh ) Pressure ( in mb ) Visibility ( mi km ) Precip ( " mm )
12:53 am 00:53 Cloudy 22 -5.6 17 -8.3 82 82 WSW 7 11 29.95 1014 10 16 0.00 0.00
1:53 am 01:53 Cloudy 21 -6.1 17 -8.3 85 85 W 7 11 29.94 1014 10 16 0.00 0.00
2:53 am 02:53 Cloudy 21 -6.1 18 -7.8 88 88 WSW 6 9 29.94 1014 10 16 0.00 0.00
3:31 am 03:31 Cloudy 21 -6.1 18 -7.8 88 88 W 3 6 30.00 1016 10 16 0.00 0.00
3:53 am 03:53 Cloudy 21 -6.1 18 -7.8 88 88 WSW 3 6 29.94 1014 10 16 0.00 0.00
4:37 am 04:37 Cloudy 21 -6.1 18 -7.8 88 88 W 5 7 30.00 1016 10 16 0.00 0.00
4:53 am 04:53 Cloudy 21 -6.1 18 -7.8 88 88 WSW 3 6 29.94 1014 10 16 0.00 0.00
5:13 am 05:13 Mostly Cloudy 20 -6.7 18 -7.8 92 92 Calm 30.00 1016 10 16 0.00 0.00
5:53 am 05:53 Cloudy 20 -6.7 18 -7.8 92 92 W 6 9 29.95 1014 10 16 0.00 0.00
6:35 am 06:35 Cloudy 20 -6.7 18 -7.8 92 92 W 3 6 30.00 1016 10 16 0.00 0.00
6:53 am 06:53 Cloudy 21 -6.1 19 -7.2 92 92 W 5 7 29.96 1015 10 16 0.00 0.00
7:25 am 07:25 Cloudy 22 -5.6 20 -6.7 92 92 WSW 5 7 30.00 1016 10 16 0.00 0.00
7:53 am 07:53 Cloudy 23 -5 21 -6.1 92 92 W 5 7 29.96 1015 10 16 0.00 0.00
8:53 am 08:53 Cloudy 24 -4.4 21 -6.1 88 88 NNW 9 15 29.97 1015 10 16 0.00 0.00
9:53 am 09:53 Cloudy 24 -4.4 21 -6.1 88 88 NW 5 7 29.96 1015 10 16 0.00 0.00
10:53 am 10:53 Cloudy 27 -2.8 21 -6.1 78 78 WNW 7 11 29.96 1014 10 16 0.00 0.00
11:17 am 11:17 Partly Cloudy 27 -2.8 21 -6.1 78 78 W 6 9 29.97 1015 10 16 0.00 0.00
11:53 am 11:53 Mostly Cloudy 27 -2.8 21 -6.1 78 78 WSW 7 11 29.93 1014 9 14 0.00 0.00
12:53 pm 12:53 Cloudy 28 -2.2 22 -5.6 78 78 W 10 17 29.89 1012 10 16 0.00 0.00
1:53 pm 13:53 Cloudy 28 -2.2 21 -6.1 75 75 W 12 19 29.86 1011 10 16 0.00 0.00
2:53 pm 14:53 Cloudy 28 -2.2 21 -6.1 75 75 WSW 8 13 29.85 1011 10 16 0.00 0.00
3:53 pm 15:53 Cloudy 29 -1.7 21 -6.1 72 72 WSW 10 17 29.83 1010 10 16 0.00 0.00
4:53 pm 16:53 Cloudy 28 -2.2 22 -5.6 78 78 W 10 17 29.79 1009 10 16 0.00 0.00
5:53 pm 17:53 Cloudy 29 -1.7 23 -5 78 78 WSW 12 19 29.76 1008 10 16 0.00 0.00
6:30 pm 18:30 Cloudy with Light Snow 30 -1.1 24 -4.4 79 79 W 15 24 29.77 1008 9 14 0.00 0.03
6:53 pm 18:53 Cloudy with Light Snow 29 -1.7 25 -3.9 85 85 WSW 9 15 29.74 1007 5 8 0.00 0.03
7:53 pm 19:53 Cloudy with Light Snow 31 -0.6 25 -3.9 79 79 WNW 10 17 29.73 1007 9 14 0.00 0.03
8:50 pm 20:50 Cloudy 30 -1 25 -4 80 80 NNW 14 22 29.74 1007 9 14 0.00 0.03
8:53 pm 20:53 Cloudy 31 -0.6 24 -4.4 76 76 NNW 14 22 29.72 1007 10 16 0.00 0.03
9:53 pm 21:53 Cloudy 31 -0.6 23 -5 72 72 NNW 13 20 29.74 1007 10 16 0.00 0.00
10:53 pm 22:53 Cloudy 31 -0.6 24 -4.4 76 76 N 9 15 29.76 1008 10 16 0.00 0.00
11:53 pm 23:53 Cloudy 30 -1.1 20 -6.7 66 66 N 21 33 29.80 1009 10 16 0.00 0.03

Powered by AerisWeather